Flag for U.S.A. Weather past 2 weeks in Portsmouth, Virginia, U.S.A.

Now
37 °F

Passing clouds.


Feels Like: 32 °F
Forecast: 28 / 46 °F
Wind: 7 mph from Northeast

Location: Norfolk Naval Air Station

Current Time: Mar 3, 2015 at 12:46:08 AM

Latest Report: Mar 2, 2015 at 11:59 PM


Visibility: 10 mi

Pressure: 30.42 "Hg

Humidity: 57%

Dew point: 23 °F

Location of PortsmouthLocation

Historic Weather in Portsmouth — Graph

°F

Portsmouth temperature yesterday

Maximum temperature yesterday: 46 °F (at 11:59 AM)
Minimum temperature yesterday: 36 °F (at 12:59 AM)
Average temperature yesterday: 40 °F

Past Weeks' High & Low Weather Summary

 TemperatureHumidityPressure
High52 °F (Feb 22, 2:59 PM)89% (Feb 22, 9:59 AM)30.84 "Hg (Feb 22, 9:59 AM)
Low11 °F (Feb 20, 5:59 AM)25% (Feb 19, 3:59 PM)29.75 "Hg (Feb 26, 3:59 AM)
Average31 °F62%30.23 "Hg
* Reported Feb 15 10:59 PM — Mar 2 10:59 PM, Portsmouth, Weather by CustomWeather, © 2015

Note: Actual official high and low records may vary slightly from our data, if they occured in-between our weather recording intervals... More about our weather records

Advertising

Portsmouth weather history for previous 24 hours

 ConditionsComfort  
Time TempWeatherWind HumidityBarometerVisibility
10:59 PM
Mon, Mar 2
39 °FPassing clouds.9 mph50%30.42 "Hg10 mi
9:59 PM38 °FPassing clouds.6 mph58%30.40 "Hg10 mi
8:59 PM39 °FPassing clouds.12 mph50%30.39 "Hg10 mi
7:59 PM38 °FPassing clouds.9 mph58%30.38 "Hg10 mi
6:59 PM39 °FPassing clouds.9 mph55%30.36 "Hg10 mi
5:59 PM40 °FPartly sunny.9 mph53%30.33 "Hg10 mi
4:59 PM42 °FPartly sunny.12 mph51%30.30 "Hg10 mi
3:59 PM43 °FPartly sunny.13 mph58%30.30 "Hg10 mi
2:59 PM45 °FPartly sunny.14 mph60%30.28 "Hg10 mi
1:59 PM45 °FPartly sunny.14 mph63%30.27 "Hg10 mi
12:59 PM45 °FBroken clouds.12 mph68%30.28 "Hg10 mi
11:59 AM46 °FPartly sunny.7 mph68%30.27 "Hg8 mi
10:59 AM40 °FFog.6 mph80%30.28 "Hg5 mi
9:59 AM40 °FCloudy.9 mph80%30.24 "Hg7 mi
8:59 AM39 °FFog.8 mph86%30.18 "Hg5 mi
7:59 AM38 °FFog.8 mph86%30.16 "Hg4 mi
6:59 AM37 °FFog.8 mph89%30.13 "Hg3 mi
5:59 AM37 °FFog.6 mph89%30.15 "Hg1 mi
4:59 AM37 °FFog.10 mph86%30.14 "Hg1 mi
3:59 AM37 °FFog.5 mph82%30.14 "Hg5 mi
2:59 AM37 °FPassing clouds.5 mph82%30.16 "Hg9 mi
1:59 AM36 °FPassing clouds.9 mph85%30.18 "Hg8 mi
12:59 AM36 °FPassing clouds.7 mph82%30.23 "Hg7 mi
Weather by CustomWeather, © 2015

See weather overviewHow to use our weather pages